Time,TemperatureF,DewpointF,PressureIn,WindDirection,WindDirectionDegrees,WindSpeedMPH,WindSpeedGustMPH,Humidity,HourlyPrecipIn,Conditions,Clouds,dailyrainin,SoftwareType,DateUTC
2013-03-30 00:02:00,30.0,25.5,29.69,SSE,167,0.0,0.0,83,0.00,,,0.11,meteohub,2013-03-29 23:02:00,
2013-03-30 00:07:00,30.0,25.7,29.69,SSE,167,0.0,2.0,84,0.00,,,0.11,meteohub,2013-03-29 23:07:00,
2013-03-30 00:12:00,30.6,26.2,29.69,SSE,167,0.0,2.0,84,0.00,,,0.11,meteohub,2013-03-29 23:12:00,
2013-03-30 00:17:00,30.7,26.2,29.69,SSE,167,0.0,2.0,83,0.00,,,0.11,meteohub,2013-03-29 23:17:00,
2013-03-30 00:27:00,30.7,26.2,29.69,SSE,167,0.0,1.0,83,0.00,,,0.11,meteohub,2013-03-29 23:27:00,
2013-03-30 00:32:00,30.7,26.2,29.69,SSE,167,0.0,1.0,83,0.00,,,0.11,meteohub,2013-03-29 23:32:00,
2013-03-30 00:42:00,30.7,26.2,29.69,SSE,167,2.0,2.0,83,0.00,,,0.11,meteohub,2013-03-29 23:42:00,
2013-03-30 00:47:00,30.9,26.1,29.69,SSE,167,0.0,2.0,82,0.00,,,0.11,meteohub,2013-03-29 23:47:00,
2013-03-30 00:57:00,31.1,26.2,29.69,SW,217,1.0,2.0,82,0.00,,,0.11,meteohub,2013-03-29 23:57:00,
2013-03-30 01:07:00,31.3,26.1,29.68,SW,217,0.0,2.0,81,0.00,,,0.00,meteohub,2013-03-30 00:07:00,
2013-03-30 01:12:00,31.3,26.1,29.68,SW,217,0.0,2.0,81,0.00,,,0.00,meteohub,2013-03-30 00:12:00,
2013-03-30 01:17:00,31.3,26.1,29.68,SW,217,0.0,1.0,81,0.00,,,0.00,meteohub,2013-03-30 00:17:00,
2013-03-30 01:22:00,31.3,26.1,29.68,SW,217,0.0,1.0,81,0.00,,,0.00,meteohub,2013-03-30 00:22:00,
2013-03-30 01:27:00,31.5,26.2,29.68,West,272,1.0,2.0,81,0.00,,,0.00,meteohub,2013-03-30 00:27:00,
2013-03-30 01:32:00,31.5,26.2,29.68,West,272,0.0,2.0,81,0.00,,,0.00,meteohub,2013-03-30 00:32:00,
2013-03-30 01:37:00,31.3,26.1,29.68,NW,321,0.0,2.0,81,0.00,,,0.00,meteohub,2013-03-30 00:37:00,
2013-03-30 01:47:00,31.3,26.1,29.68,NW,321,0.0,2.0,81,0.00,,,0.00,meteohub,2013-03-30 00:47:00,
2013-03-30 01:52:00,31.3,26.1,29.68,NW,321,0.0,1.0,81,0.00,,,0.00,meteohub,2013-03-30 00:52:00,
2013-03-30 02:02:00,31.3,26.1,29.68,NW,321,0.0,0.0,81,0.00,,,0.00,meteohub,2013-03-30 01:02:00,
2013-03-30 02:07:00,31.3,26.1,29.68,NW,321,0.0,0.0,81,0.00,,,0.00,meteohub,2013-03-30 01:07:00,
2013-03-30 02:12:00,31.3,26.4,29.68,NW,321,0.0,0.0,82,0.00,,,0.00,meteohub,2013-03-30 01:12:00,
2013-03-30 02:17:00,31.3,26.1,29.68,NW,321,1.0,1.0,81,0.00,,,0.00,meteohub,2013-03-30 01:17:00,
2013-03-30 02:22:00,31.3,25.9,29.68,NW,321,1.0,2.0,80,0.00,,,0.00,meteohub,2013-03-30 01:22:00,
2013-03-30 02:32:00,31.5,25.7,29.68,North,5,0.0,3.0,79,0.00,,,0.00,meteohub,2013-03-30 01:32:00,
2013-03-30 02:42:00,31.6,25.5,29.67,North,355,1.0,5.0,78,0.00,,,0.00,meteohub,2013-03-30 01:42:00,
2013-03-30 02:52:00,31.5,25.7,29.67,NNW,348,0.0,5.0,79,0.00,,,0.00,meteohub,2013-03-30 01:52:00,
2013-03-30 02:57:00,31.6,25.9,29.67,NNW,347,2.0,5.0,79,0.00,,,0.00,meteohub,2013-03-30 01:57:00,
2013-03-30 03:07:00,31.6,25.9,29.67,NNW,347,2.0,6.0,79,0.00,,,0.00,meteohub,2013-03-30 02:07:00,
2013-03-30 03:12:00,31.6,25.9,29.67,North,0,0.0,6.0,79,0.00,,,0.00,meteohub,2013-03-30 02:12:00,
2013-03-30 03:22:00,31.6,25.9,29.67,NNW,342,0.0,5.0,79,0.00,,,0.00,meteohub,2013-03-30 02:22:00,
2013-03-30 03:27:00,31.6,25.9,29.67,North,355,0.0,4.0,79,0.00,,,0.00,meteohub,2013-03-30 02:27:00,
2013-03-30 03:37:00,31.6,26.2,29.67,North,355,0.0,2.0,80,0.00,,,0.00,meteohub,2013-03-30 02:37:00,
2013-03-30 03:47:00,31.5,26.2,29.67,North,355,0.0,0.0,81,0.00,,,0.00,meteohub,2013-03-30 02:47:00,
2013-03-30 03:57:00,31.5,26.1,29.67,North,355,0.0,0.0,80,0.00,,,0.00,meteohub,2013-03-30 02:57:00,
2013-03-30 04:02:00,31.5,26.2,29.67,North,355,0.0,0.0,81,0.00,,,0.00,meteohub,2013-03-30 03:02:00,
2013-03-30 04:12:00,31.5,26.1,29.66,North,355,0.0,1.0,80,0.00,,,0.00,meteohub,2013-03-30 03:12:00,
2013-03-30 04:22:00,31.3,25.9,29.66,North,355,0.0,1.0,80,0.00,,,0.00,meteohub,2013-03-30 03:22:00,
2013-03-30 04:27:00,31.3,25.9,29.66,North,355,0.0,0.0,80,0.00,,,0.00,meteohub,2013-03-30 03:27:00,
2013-03-30 04:32:00,31.5,26.1,29.66,North,355,0.0,0.0,80,0.00,,,0.00,meteohub,2013-03-30 03:32:00,
2013-03-30 04:42:00,31.3,25.9,29.66,North,355,0.0,0.0,80,0.00,,,0.00,meteohub,2013-03-30 03:42:00,
2013-03-30 04:47:00,31.3,25.9,29.66,North,355,0.0,0.0,80,0.00,,,0.00,meteohub,2013-03-30 03:47:00,
2013-03-30 04:52:00,31.3,25.9,29.66,North,355,0.0,0.0,80,0.00,,,0.00,meteohub,2013-03-30 03:52:00,
2013-03-30 05:02:00,31.5,26.1,29.65,NNW,342,2.0,2.0,80,0.00,,,0.00,meteohub,2013-03-30 04:02:00,
2013-03-30 05:07:00,31.5,26.1,29.65,NNW,333,0.0,4.0,80,0.00,,,0.00,meteohub,2013-03-30 04:07:00,
2013-03-30 05:12:00,31.5,25.7,29.65,North,355,3.0,4.0,79,0.00,,,0.00,meteohub,2013-03-30 04:12:00,
2013-03-30 05:17:00,31.6,25.9,29.66,North,355,1.0,6.0,79,0.00,,,0.00,meteohub,2013-03-30 04:17:00,
2013-03-30 05:22:00,31.6,25.9,29.66,North,355,0.0,6.0,79,0.00,,,0.00,meteohub,2013-03-30 04:22:00,
2013-03-30 05:32:00,31.5,26.1,29.66,SSE,167,0.0,4.0,80,0.00,,,0.00,meteohub,2013-03-30 04:32:00,
2013-03-30 05:37:00,31.3,26.1,29.66,SSE,167,0.0,4.0,81,0.00,,,0.00,meteohub,2013-03-30 04:37:00,
2013-03-30 05:42:00,31.3,26.1,29.66,SSE,167,0.0,4.0,81,0.00,,,0.00,meteohub,2013-03-30 04:42:00,
2013-03-30 05:52:00,31.1,26.2,29.66,NNW,347,1.0,2.0,82,0.00,,,0.00,meteohub,2013-03-30 04:52:00,
2013-03-30 06:02:00,30.9,26.4,29.66,North,355,0.0,2.0,83,0.00,,,0.00,meteohub,2013-03-30 05:02:00,
2013-03-30 06:07:00,30.9,26.4,29.67,NNE,17,0.0,2.0,83,0.00,,,0.00,meteohub,2013-03-30 05:07:00,
2013-03-30 06:12:00,30.9,26.1,29.67,North,11,1.0,1.0,82,0.00,,,0.00,meteohub,2013-03-30 05:12:00,
2013-03-30 06:17:00,31.1,25.9,29.67,North,5,0.0,2.0,81,0.00,,,0.00,meteohub,2013-03-30 05:17:00,
2013-03-30 06:22:00,31.1,26.2,29.67,North,5,0.0,2.0,82,0.00,,,0.00,meteohub,2013-03-30 05:22:00,
2013-03-30 06:27:00,31.3,26.1,29.67,North,5,0.0,2.0,81,0.00,,,0.00,meteohub,2013-03-30 05:27:00,
2013-03-30 06:32:00,31.3,26.1,29.67,North,5,0.0,2.0,81,0.00,,,0.00,meteohub,2013-03-30 05:32:00,
2013-03-30 06:37:00,31.3,26.1,29.67,North,5,0.0,2.0,81,0.00,,,0.00,meteohub,2013-03-30 05:37:00,
2013-03-30 06:47:00,31.3,26.4,29.67,East,85,0.0,1.0,82,0.00,,,0.00,meteohub,2013-03-30 05:47:00,
2013-03-30 06:52:00,31.3,26.4,29.67,East,85,1.0,1.0,82,0.00,,,0.00,meteohub,2013-03-30 05:52:00,
2013-03-30 07:02:00,31.3,27.0,29.67,SSE,165,2.0,2.0,84,0.00,,,0.00,meteohub,2013-03-30 06:02:00,
2013-03-30 07:12:00,30.9,27.0,29.67,SSE,158,2.0,2.0,85,0.00,,,0.00,meteohub,2013-03-30 06:12:00,
2013-03-30 07:17:00,30.9,27.1,29.67,SSE,167,0.0,4.0,86,0.00,,,0.00,meteohub,2013-03-30 06:17:00,
2013-03-30 07:22:00,30.7,27.1,29.67,SSE,163,0.0,4.0,86,0.00,,,0.00,meteohub,2013-03-30 06:22:00,
2013-03-30 07:27:00,30.7,27.1,29.67,SSE,165,1.0,4.0,86,0.00,,,0.00,meteohub,2013-03-30 06:27:00,
2013-03-30 07:32:00,30.7,27.1,29.67,SSE,165,0.0,4.0,86,0.00,,,0.00,meteohub,2013-03-30 06:32:00,
2013-03-30 07:42:00,30.9,27.0,29.67,SSW,193,0.0,4.0,85,0.00,,,0.00,meteohub,2013-03-30 06:42:00,
2013-03-30 07:47:00,31.1,27.1,29.67,South,188,0.0,4.0,85,0.00,,,0.00,meteohub,2013-03-30 06:47:00,
2013-03-30 07:57:00,31.3,26.8,29.68,South,188,0.0,2.0,83,0.00,,,0.00,meteohub,2013-03-30 06:57:00,
2013-03-30 08:02:00,31.5,27.0,29.68,South,188,0.0,2.0,83,0.00,,,0.00,meteohub,2013-03-30 07:02:00,
2013-03-30 08:12:00,32.0,27.1,29.67,South,184,0.0,2.0,82,0.00,,,0.00,meteohub,2013-03-30 07:12:00,
2013-03-30 08:17:00,32.2,27.0,29.68,SSW,194,1.0,3.0,81,0.00,,,0.00,meteohub,2013-03-30 07:17:00,
2013-03-30 08:22:00,32.2,27.3,29.68,South,183,1.0,4.0,82,0.00,,,0.00,meteohub,2013-03-30 07:22:00,
2013-03-30 08:27:00,32.2,27.3,29.68,South,189,1.0,4.0,82,0.00,,,0.00,meteohub,2013-03-30 07:27:00,
2013-03-30 08:32:00,32.4,27.1,29.68,West,281,0.0,4.0,81,0.00,,,0.00,meteohub,2013-03-30 07:32:00,
2013-03-30 08:37:00,32.5,27.1,29.68,SSW,194,1.0,4.0,80,0.00,,,0.00,meteohub,2013-03-30 07:37:00,
2013-03-30 08:47:00,32.9,27.5,29.68,South,178,0.0,4.0,80,0.00,,,0.00,meteohub,2013-03-30 07:47:00,
2013-03-30 08:52:00,33.3,27.7,29.68,NW,307,0.0,3.0,80,0.00,,,0.00,meteohub,2013-03-30 07:52:00,
2013-03-30 08:57:00,33.4,27.9,29.68,South,178,1.0,3.0,80,0.00,,,0.00,meteohub,2013-03-30 07:57:00,
2013-03-30 09:02:00,33.6,28.0,29.68,SSW,202,0.0,2.0,80,0.00,,,0.00,meteohub,2013-03-30 08:02:00,
2013-03-30 09:12:00,34.2,28.6,29.68,South,173,0.0,4.0,80,0.00,,,0.00,meteohub,2013-03-30 08:12:00,
2013-03-30 09:17:00,34.3,28.2,29.68,NW,325,3.0,4.0,78,0.00,,,0.00,meteohub,2013-03-30 08:17:00,
2013-03-30 09:22:00,34.5,28.4,29.68,NNW,337,1.0,4.0,78,0.00,,,0.00,meteohub,2013-03-30 08:22:00,
2013-03-30 09:27:00,34.5,28.0,29.68,North,5,0.0,4.0,77,0.00,,,0.00,meteohub,2013-03-30 08:27:00,
2013-03-30 09:32:00,34.3,28.2,29.68,North,355,1.0,4.0,78,0.00,,,0.00,meteohub,2013-03-30 08:32:00,
2013-03-30 09:42:00,34.5,28.0,29.68,North,355,0.0,4.0,77,0.00,,,0.00,meteohub,2013-03-30 08:42:00,
2013-03-30 09:52:00,35.1,28.6,29.68,NNW,348,2.0,5.0,77,0.00,,,0.00,meteohub,2013-03-30 08:52:00,
2013-03-30 10:02:00,35.8,28.6,29.68,NNW,342,4.0,5.0,75,0.00,,,0.00,meteohub,2013-03-30 09:02:00,
2013-03-30 10:07:00,36.0,28.8,29.67,NNW,335,4.0,6.0,75,0.00,,,0.00,meteohub,2013-03-30 09:07:00,
2013-03-30 10:17:00,36.0,28.8,29.67,North,0,1.0,7.0,75,0.00,,,0.00,meteohub,2013-03-30 09:17:00,
2013-03-30 10:22:00,36.3,28.8,29.67,SW,227,1.0,7.0,74,0.00,,,0.00,meteohub,2013-03-30 09:22:00,
2013-03-30 10:27:00,36.7,29.1,29.67,South,188,1.0,7.0,74,0.00,,,0.00,meteohub,2013-03-30 09:27:00,
2013-03-30 10:32:00,37.2,29.1,29.67,WSW,240,1.0,7.0,72,0.00,,,0.00,meteohub,2013-03-30 09:32:00,
2013-03-30 10:37:00,37.6,29.3,29.67,North,355,1.0,7.0,72,0.00,,,0.00,meteohub,2013-03-30 09:37:00,
2013-03-30 10:47:00,37.9,29.1,29.67,WNW,302,1.0,6.0,70,0.00,,,0.00,meteohub,2013-03-30 09:47:00,
2013-03-30 10:57:00,38.5,29.5,29.67,SW,227,0.0,5.0,70,0.00,,,0.00,meteohub,2013-03-30 09:57:00,
2013-03-30 11:07:00,38.8,29.1,29.67,SSW,203,3.0,8.0,68,0.00,,,0.00,meteohub,2013-03-30 10:07:00,
2013-03-30 11:12:00,38.7,28.6,29.66,North,350,0.0,8.0,67,0.00,,,0.00,meteohub,2013-03-30 10:12:00,
2013-03-30 11:17:00,38.7,28.9,29.66,NW,323,4.0,6.0,68,0.00,,,0.00,meteohub,2013-03-30 10:17:00,
2013-03-30 11:27:00,38.8,29.1,29.66,SW,227,0.0,5.0,68,0.00,,,0.00,meteohub,2013-03-30 10:27:00,
2013-03-30 11:37:00,38.8,29.1,29.65,SSE,159,2.0,4.0,68,0.00,,,0.00,meteohub,2013-03-30 10:37:00,
2013-03-30 11:47:00,38.5,28.8,29.65,South,185,0.0,6.0,68,0.00,,,0.00,meteohub,2013-03-30 10:47:00,
2013-03-30 11:52:00,38.5,29.5,29.65,SSE,152,6.0,6.0,70,0.00,,,0.00,meteohub,2013-03-30 10:52:00,
2013-03-30 11:57:00,38.1,29.1,29.65,SSE,162,2.0,9.0,70,0.00,,,0.00,meteohub,2013-03-30 10:57:00,
2013-03-30 12:07:00,37.6,29.1,29.65,SSW,200,5.0,9.0,71,0.00,,,0.00,meteohub,2013-03-30 11:07:00,
2013-03-30 12:12:00,37.6,29.3,29.66,South,188,2.0,9.0,72,0.00,,,0.00,meteohub,2013-03-30 11:12:00,
2013-03-30 12:17:00,37.6,29.1,29.66,SE,145,3.0,9.0,71,0.00,,,0.00,meteohub,2013-03-30 11:17:00,
2013-03-30 12:27:00,37.2,28.4,29.66,SSE,167,1.0,7.0,70,0.00,,,0.00,meteohub,2013-03-30 11:27:00,
2013-03-30 12:32:00,37.6,28.8,29.65,South,188,1.0,7.0,70,0.00,,,0.00,meteohub,2013-03-30 11:32:00,
2013-03-30 12:37:00,37.8,28.9,29.66,SSE,155,4.0,5.0,70,0.00,,,0.00,meteohub,2013-03-30 11:37:00,
2013-03-30 12:42:00,37.8,28.6,29.66,South,175,1.0,7.0,69,0.00,,,0.00,meteohub,2013-03-30 11:42:00,
2013-03-30 12:52:00,37.9,29.3,29.66,NNE,13,2.0,8.0,71,0.00,,,0.00,meteohub,2013-03-30 11:52:00,
2013-03-30 12:57:00,38.1,30.2,29.66,SSE,166,5.0,10.0,73,0.00,,,0.00,meteohub,2013-03-30 11:57:00,
2013-03-30 13:07:00,37.9,30.0,29.65,SSE,160,6.0,10.0,73,0.00,,,0.00,meteohub,2013-03-30 12:07:00,
2013-03-30 13:12:00,38.1,29.8,29.65,South,188,1.0,8.0,72,0.00,,,0.00,meteohub,2013-03-30 12:12:00,
2013-03-30 13:17:00,38.7,30.4,29.65,SSW,192,6.0,7.0,72,0.00,,,0.00,meteohub,2013-03-30 12:17:00,
2013-03-30 13:22:00,38.7,30.4,29.65,South,169,4.0,9.0,72,0.00,,,0.00,meteohub,2013-03-30 12:22:00,
2013-03-30 13:27:00,38.8,30.2,29.64,SSW,209,1.0,9.0,71,0.00,,,0.00,meteohub,2013-03-30 12:27:00,
2013-03-30 13:32:00,39.0,30.4,29.64,SW,219,6.0,9.0,71,0.00,,,0.00,meteohub,2013-03-30 12:32:00,
2013-03-30 13:37:00,39.0,30.4,29.64,SW,220,7.0,10.0,71,0.00,,,0.00,meteohub,2013-03-30 12:37:00,
2013-03-30 13:42:00,38.8,30.6,29.64,NW,311,1.0,10.0,72,0.00,,,0.00,meteohub,2013-03-30 12:42:00,
2013-03-30 13:47:00,38.8,30.6,29.64,South,190,2.0,10.0,72,0.00,,,0.00,meteohub,2013-03-30 12:47:00,
2013-03-30 13:52:00,39.0,30.4,29.65,South,173,5.0,7.0,71,0.00,,,0.00,meteohub,2013-03-30 12:52:00,
2013-03-30 13:57:00,38.7,30.0,29.65,SE,146,5.0,7.0,71,0.00,,,0.00,meteohub,2013-03-30 12:57:00,
2013-03-30 14:07:00,38.1,29.5,29.65,SSE,163,3.0,9.0,71,0.00,,,0.00,meteohub,2013-03-30 13:07:00,
2013-03-30 14:12:00,38.7,30.4,29.64,SSE,168,2.0,9.0,72,0.00,,,0.00,meteohub,2013-03-30 13:12:00,
2013-03-30 14:17:00,39.0,30.0,29.65,SSE,154,3.0,7.0,70,0.00,,,0.00,meteohub,2013-03-30 13:17:00,
2013-03-30 14:22:00,39.0,30.0,29.65,SSW,207,1.0,11.0,70,0.00,,,0.00,meteohub,2013-03-30 13:22:00,
2013-03-30 14:32:00,38.8,30.2,29.65,NW,324,1.0,11.0,71,0.00,,,0.00,meteohub,2013-03-30 13:32:00,
2013-03-30 14:37:00,38.7,29.7,29.65,SSE,160,5.0,8.0,70,0.00,,,0.00,meteohub,2013-03-30 13:37:00,
2013-03-30 14:47:00,38.7,29.7,29.65,SSE,160,4.0,8.0,70,0.00,,,0.00,meteohub,2013-03-30 13:47:00,
2013-03-30 14:57:00,38.8,29.5,29.64,SSE,162,5.0,6.0,69,0.00,,,0.00,meteohub,2013-03-30 13:57:00,
2013-03-30 15:02:00,38.8,29.5,29.64,SW,215,2.0,7.0,69,0.00,,,0.00,meteohub,2013-03-30 14:02:00,
2013-03-30 15:07:00,39.0,29.7,29.65,NNE,30,1.0,7.0,69,0.00,,,0.00,meteohub,2013-03-30 14:07:00,
2013-03-30 15:17:00,39.0,29.7,29.64,SSW,196,2.0,7.0,69,0.00,,,0.00,meteohub,2013-03-30 14:17:00,
2013-03-30 15:22:00,39.0,29.7,29.64,SSW,202,3.0,7.0,69,0.00,,,0.00,meteohub,2013-03-30 14:22:00,
2013-03-30 15:27:00,39.0,29.3,29.64,NW,308,1.0,7.0,68,0.00,,,0.00,meteohub,2013-03-30 14:27:00,
2013-03-30 15:37:00,39.0,28.9,29.64,NW,320,2.0,6.0,67,0.00,,,0.00,meteohub,2013-03-30 14:37:00,
2013-03-30 15:47:00,38.8,28.8,29.64,South,189,1.0,8.0,67,0.00,,,0.00,meteohub,2013-03-30 14:47:00,
2013-03-30 15:57:00,39.2,29.1,29.64,NE,50,1.0,8.0,67,0.00,,,0.00,meteohub,2013-03-30 14:57:00,
2013-03-30 16:02:00,39.2,29.1,29.64,SSE,150,8.0,8.0,67,0.00,,,0.00,meteohub,2013-03-30 15:02:00,
2013-03-30 16:12:00,38.8,28.8,29.64,SSW,212,1.0,8.0,67,0.00,,,0.00,meteohub,2013-03-30 15:12:00,
2013-03-30 16:17:00,38.8,28.8,29.64,SSE,166,3.0,11.0,67,0.00,,,0.00,meteohub,2013-03-30 15:17:00,
2013-03-30 16:27:00,38.5,28.4,29.64,South,170,5.0,11.0,67,0.00,,,0.00,meteohub,2013-03-30 15:27:00,
2013-03-30 16:32:00,38.5,28.4,29.64,SSW,200,5.0,9.0,67,0.00,,,0.00,meteohub,2013-03-30 15:32:00,
2013-03-30 16:37:00,38.5,28.4,29.64,South,191,2.0,9.0,67,0.00,,,0.00,meteohub,2013-03-30 15:37:00,
2013-03-30 16:47:00,38.3,28.2,29.63,SSE,161,6.0,7.0,67,0.00,,,0.00,meteohub,2013-03-30 15:47:00,
2013-03-30 16:52:00,38.1,28.2,29.63,South,173,5.0,7.0,67,0.00,,,0.00,meteohub,2013-03-30 15:52:00,
2013-03-30 16:57:00,38.1,28.6,29.63,SSE,155,3.0,8.0,68,0.00,,,0.00,meteohub,2013-03-30 15:57:00,
2013-03-30 17:07:00,37.8,28.9,29.64,SSW,207,1.0,10.0,70,0.00,,,0.00,meteohub,2013-03-30 16:07:00,
2013-03-30 17:12:00,37.6,28.8,29.64,SSW,202,6.0,10.0,70,0.00,,,0.00,meteohub,2013-03-30 16:12:00,
2013-03-30 17:17:00,37.2,28.4,29.64,SSW,212,4.0,11.0,70,0.00,,,0.00,meteohub,2013-03-30 16:17:00,
2013-03-30 17:22:00,37.0,28.6,29.64,SSW,194,3.0,11.0,71,0.00,,,0.00,meteohub,2013-03-30 16:22:00,
2013-03-30 17:27:00,36.9,28.8,29.64,SW,234,1.0,11.0,72,0.00,,,0.00,meteohub,2013-03-30 16:27:00,
2013-03-30 17:32:00,36.7,28.6,29.64,SSE,163,7.0,9.0,72,0.00,,,0.00,meteohub,2013-03-30 16:32:00,
2013-03-30 17:42:00,36.3,28.6,29.64,SW,217,3.0,9.0,73,0.00,,,0.00,meteohub,2013-03-30 16:42:00,
2013-03-30 17:47:00,36.3,28.6,29.64,WSW,242,5.0,9.0,73,0.00,,,0.00,meteohub,2013-03-30 16:47:00,
2013-03-30 17:52:00,36.1,28.4,29.64,SSE,153,12.0,12.0,73,0.00,,,0.00,meteohub,2013-03-30 16:52:00,
2013-03-30 18:02:00,35.8,27.7,29.64,SW,232,7.0,12.0,72,0.00,,,0.00,meteohub,2013-03-30 17:02:00,
2013-03-30 18:07:00,35.6,27.9,29.64,SSE,166,12.0,12.0,73,0.00,,,0.00,meteohub,2013-03-30 17:07:00,
2013-03-30 18:17:00,35.2,28.0,29.65,SSE,158,7.0,12.0,75,0.00,,,0.00,meteohub,2013-03-30 17:17:00,
2013-03-30 18:27:00,35.1,28.2,29.65,South,175,5.0,10.0,76,0.00,,,0.00,meteohub,2013-03-30 17:27:00,
2013-03-30 18:37:00,34.7,27.9,29.65,SE,146,5.0,12.0,76,0.00,,,0.00,meteohub,2013-03-30 17:37:00,
2013-03-30 18:42:00,34.5,28.0,29.66,SSE,160,5.0,12.0,77,0.00,,,0.00,meteohub,2013-03-30 17:42:00,
2013-03-30 18:47:00,34.3,28.2,29.66,SW,221,2.0,8.0,78,0.00,,,0.00,meteohub,2013-03-30 17:47:00,
2013-03-30 18:57:00,34.2,28.4,29.67,South,186,4.0,8.0,79,0.00,,,0.00,meteohub,2013-03-30 17:57:00,
2013-03-30 19:02:00,34.2,28.4,29.67,South,184,5.0,9.0,79,0.00,,,0.00,meteohub,2013-03-30 18:02:00,
2013-03-30 19:12:00,34.0,28.2,29.68,SSW,202,3.0,8.0,79,0.00,,,0.00,meteohub,2013-03-30 18:12:00,
2013-03-30 19:22:00,33.8,28.2,29.68,WSW,257,3.0,10.0,80,0.00,,,0.00,meteohub,2013-03-30 18:22:00,
2013-03-30 19:27:00,33.6,28.0,29.68,South,169,4.0,10.0,80,0.00,,,0.00,meteohub,2013-03-30 18:27:00,
2013-03-30 19:32:00,33.6,28.0,29.68,SSE,162,5.0,8.0,80,0.00,,,0.00,meteohub,2013-03-30 18:32:00,
2013-03-30 19:42:00,33.4,27.9,29.68,SSW,202,4.0,7.0,80,0.00,,,0.00,meteohub,2013-03-30 18:42:00,
2013-03-30 19:52:00,33.3,27.7,29.68,SSW,193,2.0,8.0,80,0.00,,,0.00,meteohub,2013-03-30 18:52:00,
2013-03-30 20:02:00,33.3,27.7,29.68,SSE,166,4.0,8.0,80,0.00,,,0.00,meteohub,2013-03-30 19:02:00,
2013-03-30 20:07:00,33.3,27.5,29.68,SSE,159,4.0,6.0,79,0.00,,,0.00,meteohub,2013-03-30 19:07:00,
2013-03-30 20:17:00,33.1,27.3,29.68,SSE,152,4.0,8.0,79,0.00,,,0.00,meteohub,2013-03-30 19:17:00,
2013-03-30 20:22:00,33.1,27.3,29.69,SW,227,4.0,7.0,79,0.00,,,0.00,meteohub,2013-03-30 19:22:00,
2013-03-30 20:32:00,32.9,27.1,29.69,South,180,9.0,9.0,79,0.00,,,0.00,meteohub,2013-03-30 19:32:00,
2013-03-30 20:37:00,32.7,26.6,29.69,South,184,4.0,9.0,78,0.00,,,0.00,meteohub,2013-03-30 19:37:00,
2013-03-30 20:42:00,32.7,26.6,29.69,SSE,160,4.0,9.0,78,0.00,,,0.00,meteohub,2013-03-30 19:42:00,
2013-03-30 20:52:00,32.7,26.6,29.69,SSE,160,5.0,8.0,78,0.00,,,0.00,meteohub,2013-03-30 19:52:00,
2013-03-30 21:02:00,32.5,26.4,29.69,South,182,2.0,7.0,78,0.00,,,0.00,meteohub,2013-03-30 20:02:00,
2013-03-30 21:07:00,32.5,26.4,29.70,SSE,167,4.0,7.0,78,0.00,,,0.00,meteohub,2013-03-30 20:07:00,
2013-03-30 21:12:00,32.5,26.4,29.70,SSW,197,2.0,7.0,78,0.00,,,0.00,meteohub,2013-03-30 20:12:00,
2013-03-30 21:22:00,32.5,26.4,29.70,SSW,198,4.0,12.0,78,0.00,,,0.00,meteohub,2013-03-30 20:22:00,
2013-03-30 21:32:00,32.4,25.9,29.70,South,183,2.0,9.0,77,0.00,,,0.00,meteohub,2013-03-30 20:32:00,
2013-03-30 21:37:00,32.4,25.9,29.70,South,188,3.0,9.0,77,0.00,,,0.00,meteohub,2013-03-30 20:37:00,
2013-03-30 21:47:00,32.4,25.9,29.70,SSW,202,1.0,7.0,77,0.00,,,0.00,meteohub,2013-03-30 20:47:00,
2013-03-30 21:57:00,32.4,26.2,29.70,SSW,194,3.0,5.0,78,0.00,,,0.00,meteohub,2013-03-30 20:57:00,
2013-03-30 22:02:00,32.2,25.7,29.70,South,171,0.0,5.0,77,0.00,,,0.00,meteohub,2013-03-30 21:02:00,
2013-03-30 22:12:00,32.2,25.7,29.70,SSW,207,1.0,7.0,77,0.00,,,0.00,meteohub,2013-03-30 21:12:00,
2013-03-30 22:17:00,32.2,25.7,29.70,South,175,3.0,7.0,77,0.00,,,0.00,meteohub,2013-03-30 21:17:00,
2013-03-30 22:22:00,32.2,25.7,29.70,South,182,2.0,7.0,77,0.00,,,0.00,meteohub,2013-03-30 21:22:00,
2013-03-30 22:27:00,32.0,25.7,29.70,South,188,5.0,7.0,77,0.00,,,0.00,meteohub,2013-03-30 21:27:00,
2013-03-30 22:37:00,31.8,25.5,29.70,SSE,153,3.0,7.0,77,0.00,,,0.00,meteohub,2013-03-30 21:37:00,
2013-03-30 22:42:00,31.8,25.7,29.70,SSW,194,0.0,7.0,78,0.00,,,0.00,meteohub,2013-03-30 21:42:00,
2013-03-30 22:47:00,31.8,25.7,29.70,South,180,3.0,7.0,78,0.00,,,0.00,meteohub,2013-03-30 21:47:00,
2013-03-30 22:52:00,31.8,25.7,29.70,SW,221,3.0,6.0,78,0.00,,,0.00,meteohub,2013-03-30 21:52:00,
2013-03-30 22:57:00,31.8,25.7,29.70,South,173,2.0,6.0,78,0.00,,,0.00,meteohub,2013-03-30 21:57:00,
2013-03-30 23:02:00,31.8,25.7,29.70,SSW,206,1.0,6.0,78,0.00,,,0.00,meteohub,2013-03-30 22:02:00,
2013-03-30 23:12:00,31.6,25.5,29.70,SSE,157,5.0,6.0,78,0.00,,,0.00,meteohub,2013-03-30 22:12:00,
2013-03-30 23:17:00,31.6,25.5,29.70,South,171,1.0,6.0,78,0.00,,,0.00,meteohub,2013-03-30 22:17:00,
2013-03-30 23:22:00,31.6,25.9,29.70,SW,233,2.0,6.0,79,0.00,,,0.00,meteohub,2013-03-30 22:22:00,
2013-03-30 23:27:00,31.6,25.9,29.70,South,178,2.0,7.0,79,0.00,,,0.00,meteohub,2013-03-30 22:27:00,
2013-03-30 23:37:00,31.5,25.7,29.69,South,188,2.0,8.0,79,0.00,,,0.00,meteohub,2013-03-30 22:37:00,
2013-03-30 23:42:00,31.5,26.1,29.69,SSW,193,1.0,8.0,80,0.00,,,0.00,meteohub,2013-03-30 22:42:00,
2013-03-30 23:52:00,31.3,25.9,29.69,South,182,3.0,8.0,80,0.00,,,0.00,meteohub,2013-03-30 22:52:00,
2013-03-30 23:57:00,29.7,25.3,29.69,South,173,1.0,8.0,84,0.00,,,0.00,meteohub,2013-03-30 22:57:00,